Location: Newark
(30.0333°N, 31.2167°E)
Time: 04:58:45
(UTC+00:00)

Transit 2A - All Passes

Search period start: 28 January 2020 00:00
Search period end: 07 February 2020 00:00
Orbit: 601 x 958 km, 66.7° (Epoch: 27 January)

Date Brightness Start Highest point End Pass type
(mag) Time Alt. Az. Time Alt. Az. Time Alt. Az.
28 Jan - 01:33:32 10° N 01:37:19 21° ENE 01:41:20 10° ESE visible
28 Jan - 03:15:45 10° NW 03:20:28 39° WSW 03:25:39 10° S visible
28 Jan - 16:07:40 10° S 16:12:06 54° ESE 16:16:21 10° NE visible
28 Jan - 17:54:28 10° WNW 17:55:28 11° NW 17:56:28 10° NW visible
29 Jan - 01:00:28 10° NNE 01:03:03 14° NE 01:05:42 10° E visible
29 Jan - 02:41:23 10° NNW 02:46:24 62° WSW 02:51:56 10° SSE visible
29 Jan - 15:34:02 10° S 15:38:04 31° ESE 15:41:55 10° NE daylight
29 Jan - 17:18:13 10° W 17:21:10 17° WNW 17:24:04 10° NNW visible
30 Jan - 02:07:13 10° NNW 02:12:18 85° ENE 02:17:55 10° SSE visible
30 Jan - 15:00:52 10° SSE 15:04:02 19° ESE 15:07:08 10° ENE daylight
30 Jan - 16:43:07 10° WSW 16:46:55 27° WNW 16:50:38 10° N visible
31 Jan - 01:33:13 10° NNW 01:38:10 54° ENE 01:43:39 10° SE visible
31 Jan - 03:18:13 10° WNW 03:21:01 14° WSW 03:23:57 10° SW visible
31 Jan - 14:28:50 10° ESE 14:30:04 11° ESE 14:31:16 10° E daylight
31 Jan - 16:08:27 10° SW 16:12:45 45° WNW 16:16:55 10° N visible
01 Feb - 00:59:24 10° N 01:04:01 35° ENE 01:09:03 10° SE visible
01 Feb - 02:42:57 10° WNW 02:47:00 23° WSW 02:51:20 10° SSW visible
01 Feb - 15:34:08 10° SSW 15:38:37 78° WNW 15:42:58 10° NNE daylight
02 Feb - 00:25:48 10° N 00:29:49 23° ENE 00:34:08 10° ESE night (unlit)
02 Feb - 02:08:15 10° NW 02:12:57 36° WSW 02:18:05 10° S visible
02 Feb - 15:00:06 10° SSW 15:04:32 61° ESE 15:08:49 10° NNE daylight
02 Feb - 23:52:34 10° NNE 23:55:33 15° ENE 23:58:41 10° E night (unlit)
03 Feb - 01:33:51 10° NW 01:38:53 56° WSW 01:44:26 10° S night (unlit)
03 Feb - 14:26:24 10° S 14:30:29 35° ESE 14:34:27 10° NE daylight
03 Feb - 16:11:00 10° W 16:13:39 16° WNW 16:16:17 10° NNW visible
04 Feb - 00:59:39 10° NNW 01:04:47 88° WSW 01:10:29 10° SSE night (unlit)
04 Feb - 13:53:06 10° SSE 13:56:28 21° ESE 13:59:44 10° ENE daylight
04 Feb - 15:35:45 10° WSW 15:39:24 25° WNW 15:42:58 10° N daylight
05 Feb - 00:25:37 10° NNW 00:30:40 60° ENE 00:36:16 10° SE night (unlit)
05 Feb - 02:11:00 10° WNW 02:13:29 13° WSW 02:16:04 10° SW night (unlit)
05 Feb - 13:20:40 10° SE 13:22:29 12° ESE 13:24:16 10° E daylight
05 Feb - 15:01:01 10° SW 15:05:12 40° WNW 15:09:18 10° N daylight
05 Feb - 23:51:45 10° N 23:56:31 39° ENE 00:01:44 10° SE night (unlit)
06 Feb - 01:35:33 10° WNW 01:39:29 21° WSW 01:43:40 10° SSW night (unlit)
06 Feb - 14:26:37 10° SSW 14:31:04 69° WNW 14:35:23 10° NNE daylight
06 Feb - 23:18:05 10° N 23:22:20 26° ENE 23:26:54 10° ESE night (unlit)
